EW8749 Weather Reports


Display with metric or nautical units.
time (UTC)temp
F
wind
direction
speed
MPH
gust
MPH
rain 1hr
in
rain 24hr
in
rain mn
in
humidity
%
barometer
mb
20260901013042 61 251 0.0 8.0 0.01 0.01 0.01 66 1024.2
20260901011539 60 287 0.0 2.0 0.01 0.01 0.01 69 1024.7
20260901010029 60 277 0.0 10.0 0.00 0.00 0.00 70 1025.0
20260901004526 60 234 0.0 10.0 0.00 0.00 0.00 69 1025.2
20260901003024 59 238 0.0 5.0 0.00 0.00 0.00 70 1025.4
20260901001525 58 301 0.0 7.0 0.00 0.00 0.00 72 1025.5
20260901000014 57 277 0.0 9.0 0.00 0.00 0.00 73 1025.8
20260831234512 56 303 0.0 9.0 0.00 0.00 0.00 72 1026.1
20260831233014 55 270 0.0 5.0 0.00 0.00 0.00 75 1026.4
20260831231504 55 257 0.0 4.0 0.00 0.00 0.00 76 1026.6
20260831230101 54 249 0.0 1.0 0.00 0.00 0.00 77 1026.9
20260831224557 53 344 0.0 0.0 0.00 0.00 0.00 79 1027.0
20260831223055 52 245 0.0 0.0 0.00 0.00 0.00 80 1027.1
20260831221553 52 261 0.0 0.0 0.00 0.00 0.00 79 1027.2
20260831220108 51 295 0.0 0.0 0.00 0.00 0.00 81 1027.0
20260831214549 50 329 0.0 0.0 0.00 0.00 0.00 84 1027.1
20260831213043 48 255 0.0 0.0 0.00 0.00 0.00 88 1027.2
20260831211538 46 279 0.0 0.0 0.00 0.00 0.00 92 1027.3
20260831210041 45 331 0.0 0.0 0.00 0.00 0.00 91 1027.3
20260831204634 44 320 0.0 0.0 0.00 0.00 0.00 91 1027.2
20260831203034 41 296 0.0 0.0 0.00 0.00 0.00 91 1027.2
20260831201540 41 296 0.0 0.0 0.00 0.00 0.00 91 1027.2
20260831200039 41 296 0.0 0.0 0.00 0.00 0.00 91 1027.1
20260831194602 41 296 0.0 0.0 0.00 0.01 0.00 91 1027.2
20260831193030 41 296 0.0 0.0 0.00 0.01 0.00 91 1027.1
20260831191534 41 296 0.0 0.0 0.00 0.01 0.00 91 1027.2
20260831190026 41 296 0.0 0.0 0.00 0.01 0.00 91 1027.3
20260831184528 42 296 0.0 0.0 0.00 0.01 0.00 91 1027.4
20260831183023 42 296 0.0 0.0 0.00 0.01 0.00 91 1027.4
20260831181524 42 296 0.0 0.0 0.00 0.01 0.00 91 1027.4
20260831180024 42 296 0.0 0.0 0.00 0.01 0.00 91 1027.6
20260831174518 41 296 0.0 0.0 0.00 0.01 0.00 92 1027.7
20260831173016 42 296 0.0 0.0 0.00 0.01 0.00 91 1027.7
20260831171516 41 296 0.0 0.0 0.00 0.01 0.00 91 1027.8
20260831170014 41 296 0.0 0.0 0.00 0.01 0.00 92 1027.9
20260831164509 42 296 0.0 0.0 0.00 0.01 0.00 92 1028.0
20260831163011 42 296 0.0 0.0 0.00 0.01 0.00 92 1028.1
20260831161511 43 296 0.0 0.0 0.00 0.01 0.00 92 1028.4
20260831160007 44 296 0.0 0.0 0.00 0.01 0.00 92 1028.5
20260831154505 44 296 0.0 0.0 0.00 0.01 0.00 92 1028.7
20260831153059 44 296 0.0 0.0 0.00 0.01 0.00 92 1028.9
20260831151603 43 296 0.0 0.0 0.00 0.01 0.00 91 1029.0
20260831150054 44 296 0.0 0.0 0.00 0.01 0.00 91 1029.0
20260831144607 44 296 0.0 0.0 0.00 0.01 0.00 91 1029.1
20260831141550 45 296 0.0 0.0 0.00 0.01 0.00 89 1029.2
20260831140043 46 296 0.0 0.0 0.00 0.01 0.00 89 1029.2
20260831134544 46 296 0.0 0.0 0.00 0.01 0.01 89 1029.2
20260831133042 46 296 0.0 0.0 0.00 0.01 0.01 89 1029.3
20260831131542 46 296 0.0 0.0 0.00 0.01 0.01 88 1029.4
20260831130047 47 296 0.0 0.0 0.00 0.01 0.01 88 1029.6
20260831124540 47 296 0.0 0.0 0.00 0.01 0.01 87 1029.8
20260831123039 48 296 0.0 0.0 0.00 0.01 0.01 86 1029.8
20260831121539 48 296 0.0 0.0 0.00 0.01 0.01 85 1030.0
20260831120039 50 296 0.0 0.0 0.00 0.01 0.01 81 1029.9
20260831114538 51 296 0.0 0.0 0.00 0.01 0.01 80 1030.1
20260831113038 51 296 0.0 0.0 0.00 0.01 0.01 81 1030.0
20260831111557 51 296 0.0 0.0 0.00 0.01 0.01 81 1030.1
20260831110048 52 296 0.0 0.0 0.00 0.01 0.01 79 1030.0
20260831104537 53 296 0.0 0.0 0.00 0.01 0.01 78 1030.1
20260831103036 53 296 0.0 0.0 0.00 0.01 0.01 78 1030.0
20260831101535 54 296 0.0 0.0 0.00 0.01 0.01 76 1029.9
20260831100035 55 290 0.0 0.0 0.00 0.01 0.01 75 1029.8
20260831094540 55 283 0.0 0.0 0.00 0.01 0.01 74 1029.8
20260831093034 55 303 0.0 0.0 0.00 0.01 0.01 73 1029.7
20260831091533 56 299 0.0 0.0 0.00 0.01 0.01 72 1029.8
20260831090032 56 258 0.0 0.0 0.00 0.01 0.01 73 1029.7
20260831084540 57 296 0.0 0.0 0.00 0.01 0.01 73 1029.6
20260831083033 57 287 0.0 0.0 0.00 0.01 0.01 73 1029.6
20260831081531 58 298 0.0 0.0 0.00 0.01 0.01 73 1029.5
20260831080030 58 301 0.0 0.0 0.00 0.01 0.01 71 1029.4
20260831074539 60 310 0.0 0.0 0.00 0.01 0.01 68 1029.4
20260831073059 61 274 0.0 0.0 0.00 0.01 0.01 66 1029.3
20260831071628 63 289 0.0 0.0 0.00 0.01 0.01 63 1029.3
20260831070032 65 308 0.0 1.0 0.00 0.01 0.01 60 1029.3
20260831064536 65 256 0.0 0.0 0.00 0.01 0.01 58 1029.4
20260831063026 65 270 0.0 0.0 0.00 0.01 0.01 57 1029.5
20260831061536 66 275 0.0 3.0 0.00 0.01 0.01 53 1029.4
20260831060025 66 235 0.0 1.0 0.00 0.01 0.01 49 1029.4
20260831054525 66 265 0.0 1.0 0.00 0.01 0.01 47 1029.4
20260831053024 67 261 0.0 0.0 0.00 0.01 0.01 47 1029.6
20260831051524 67 296 0.0 1.0 0.00 0.01 0.01 49 1029.7
20260831050036 67 272 0.0 1.0 0.00 0.01 0.01 52 1029.8
20260831044520 66 279 0.0 0.0 0.00 0.01 0.01 51 1029.8
20260831043018 66 235 0.0 2.0 0.00 0.01 0.01 49 1029.9
20260831041517 66 330 0.0 8.0 0.00 0.01 0.01 47 1029.9
20260831040038 67 228 0.0 0.0 0.00 0.01 0.01 45 1030.0
20260831034513 67 290 0.0 0.0 0.00 0.01 0.01 46 1030.1
20260831033017 67 281 0.0 0.0 0.00 0.01 0.01 48 1030.3
20260831031507 66 241 1.0 8.0 0.00 0.01 0.01 50 1030.5
20260831030015 66 320 0.0 7.0 0.00 0.01 0.01 52 1030.7
20260831024503 66 317 0.0 0.0 0.00 0.01 0.01 51 1030.9
20260831023100 65 264 0.0 0.0 0.00 0.01 0.01 52 1031.2
20260831021559 65 239 0.0 0.0 0.00 0.01 0.01 54 1031.4
20260831020054 64 292 0.0 0.0 0.00 0.01 0.01 59 1031.6
20260831014553 64 238 0.0 0.0 0.00 0.01 0.01 56 1031.8